Flag for China Weather past 2 weeks in Guilin, Guangxi, China

Now
86 °F

Partly sunny.


Feels Like: 92 °F
Forecast: 74 / 80 °F
Wind: 13 mph from Northeast

Location: Guilin Airport

Current Time: Sep 1, 2015 at 4:12:18 PM

Latest Report: Sep 1, 2015 at 3:00 PM


Visibility: 6 mi

Pressure: 29.71 "Hg

Humidity: 62%

Dew point: 72 °F

Location of GuilinLocation

Historic Weather in Guilin — Graph

°F

Guilin temperature yesterday

Maximum temperature yesterday: 82 °F (at 12:00 PM)
Minimum temperature yesterday: 72 °F (at 5:00 AM)
Average temperature yesterday: 77 °F

Past Weeks' High & Low Weather Summary

 TemperatureHumidityPressure
High95 °F (Aug 24, 4:00 PM)100% (Aug 17, 10:00 PM)29.89 "Hg (Aug 17, 10:00 PM)
Low70 °F (Aug 23, 6:00 AM)32% (Aug 24, 4:00 PM)29.59 "Hg (Aug 22, 3:00 PM)
Average79 °F84%29.75 "Hg
* Reported Aug 17 3:00 PM — Sep 1 3:00 PM, Guilin, Weather by CustomWeather, © 2015

Note: Actual official high and low records may vary slightly from our data, if they occured in-between our weather recording intervals... More about our weather records

Advertising

Guilin weather history for previous 24 hours

 ConditionsComfort  
Time TempWeatherWind HumidityBarometerVisibility
3:00 PM
Tue, Sep 1
86 °FPartly sunny.13 mph62%29.71 "Hg6 mi
2:00 PM88 °FPassing clouds.13 mph62%29.74 "Hg6 mi
1:00 PM86 °FScattered clouds.13 mph66%29.74 "Hg5 mi
12:00 PM84 °FMore clouds than sun.10 mph74%29.77 "Hg4 mi
11:00 AM84 °FMore clouds than sun.3 mph74%29.77 "Hg4 mi
10:00 AM81 °FFog.1 mph84%29.77 "Hg3 mi
9:00 AM79 °FFog.1 mph89%29.77 "Hg2 mi
8:00 AM75 °FFog.1 mph100%29.74 "Hg2 mi
7:00 AM75 °FFog.No wind100%29.74 "Hg2 mi
6:00 AM75 °FFog.No wind100%29.74 "Hg2 mi
5:00 AM75 °FFog.No wind94%29.74 "Hg3 mi
4:00 AM75 °FFog.No wind100%29.74 "Hg3 mi
3:00 AM75 °FFog.3 mph100%29.74 "Hg2 mi
2:00 AM75 °FFog.1 mph100%29.77 "Hg2 mi
1:00 AM75 °FFog.1 mph100%29.77 "Hg1 mi
12:00 AM75 °FFog.No wind100%29.77 "Hg2 mi
11:00 PM
Mon, Aug 31
77 °FFog.No wind100%29.77 "Hg2 mi
10:00 PM77 °FFog.3 mph100%29.77 "Hg2 mi
9:00 PM77 °FFog.1 mph94%29.77 "Hg3 mi
8:00 PM79 °FPassing clouds.3 mph89%29.74 "Hg4 mi
7:00 PM81 °FPassing clouds.3 mph84%29.74 "Hg4 mi
6:00 PM81 °FLight rain. Broken clouds.1 mph84%29.74 "Hg4 mi
5:00 PM82 °FPartly sunny.No wind74%29.74 "Hg4 mi
4:00 PM82 °FOvercast.3 mph74%29.74 "Hg4 mi
Weather by CustomWeather, © 2015

See weather overviewHow to use our weather pages